Theta_e
322 323 323 324 326 325 325 321 317 315 316 322 323 328 330 330 331 329 328 324 323 321 320 321 322 323 324 324 324 324 324 324 324 325 327 327 325 324
322 323 324 324 324 325 324 324 323 320 316 323 324 326 328 329 330 327 326 325 322 320 321 319 318 319 320 320 320 321 321 321 321 321 322 323 324 324
323 323 323 324 324 324 326 326 324 324 319 323 325 327 326 326 326 326 326 324 323 320 320 318 316 316 317 317 317 318 318 318 318 319 319 319 320 321
323 324 323 324 323 325 325 326 324 326 323 320 324 324 325 325 324 324 325 326 325 321 318 317 315 315 314 314 313 313 311 311 311 312 313 314 316 316
324 324 324 325 324 325 325 324 325 325 324 323 321 325 325 325 322 321 321 321 322 322 316 316 314 314 313 312 311 310 308 307 306 306 308 308 309 309
324 325 325 324 323 324 324 324 324 323 324 322 321 321 320 321 321 317 316 320 320 318 316 314 313 313 312 311 312 312 308 305 304 303 303 303 303 304
324 324 326 324 320 322 324 323 323 322 321 320 317 317 315 319 321 319 318 317 317 318 318 315 316 315 312 311 310 308 305 303 302 302 301 300 300 300
322 322 321 318 315 312 313 313 318 320 318 317 315 316 315 318 316 318 315 314 313 317 318 312 313 309 309 308 305 303 302 302 301 301 300 299 299 298
322 323 323 320 320 320 311 311 312 312 315 320 319 319 316 316 317 313 313 314 316 315 319 309 310 307 307 304 302 301 300 299 299 299 299 298 298 297
324 324 322 322 320 321 320 318 317 318 320 321 324 320 321 317 318 317 317 315 311 309 317 309 307 305 307 304 301 300 298 297 297 297 297 297 297 296
323 323 324 321 304 306 318 316 314 312 303 301 302 303 301 303 311 318 316 316 310 308 308 308 306 306 306 303 302 299 298 297 296 297 297 297 296 296
322 319 310 318 299 303 317 316 315 312 309 309 309 306 306 304 305 320 318 313 305 306 309 307 306 307 304 305 302 300 301 297 296 295 296 295 295 297
320 319 319 301 299 299 304 314 313 309 305 308 307 307 307 308 308 308 310 310 307 307 309 308 306 306 305 303 303 300 299 298 296 296 294 294 294 294
320 319 315 298 298 297 304 300 296 303 309 308 308 307 307 306 304 304 305 304 304 306 308 308 303 303 301 297 296 297 297 298 295 294 295 294 294 294
319 311 297 295 296 298 298 295 299 310 310 309 308 307 308 304 303 302 302 302 301 300 300 302 301 299 298 296 295 292 292 295 294 293 293 293 293 294
301 301 298 299 298 301 301 302 309 311 311 310 309 306 304 303 302 302 299 298 296 296 298 299 299 299 294 294 292 291 292 290 292 292 292 293 293 294
300 301 301 301 302 302 303 305 308 309 308 306 305 303 302 302 301 302 300 299 295 293 294 296 298 298 297 295 291 291 290 290 291 290 290 289 291 292
302 302 303 303 303 303 303 303 308 306 307 306 304 304 302 301 300 300 299 297 293 293 293 293 294 293 292 293 294 290 290 289 290 289 289 287 287 290
307 302 304 304 304 303 303 303 305 309 306 306 304 303 302 301 299 299 297 295 293 294 293 293 292 291 289 287 291 292 289 289 289 288 287 287 286 288
303 304 303 303 303 303 302 302 304 306 304 302 302 302 301 300 299 298 296 294 294 293 293 293 292 291 290 289 289 291 288 289 288 286 286 287 288 288
303 304 304 302 301 302 304 304 305 306 304 303 302 301 301 300 299 298 295 291 290 292 291 291 293 287 293 292 288 288 289 289 288 287 287 286 285 286
305 305 306 304 303 301 302 305 306 303 303 303 302 301 301 301 299 298 295 292 292 293 293 293 292 292 290 288 286 285 286 287 288 287 288 287 285 282
308 307 307 308 307 306 305 305 306 306 305 304 302 302 301 300 300 297 294 293 292 291 291 290 290 290 287 287 285 285 284 284 284 284 286 286 286 287
Wind_Speed
4 4 4 3 3 3 4 5 5 2 1 4 3 9 8 10 13 10 9 11 12 10 8 9 8 7 7 6 6 4 3 3 4 5 6 8 10 11
4 5 6 3 5 5 5 5 4 3 4 2 4 11 9 9 12 9 9 10 10 10 8 7 7 7 7 6 6 5 5 4 6 6 8 8 8 10
6 7 7 6 5 5 5 5 6 5 8 4 9 11 12 11 8 7 7 5 4 8 5 7 8 7 6 5 4 5 5 4 5 6 7 8 8 10
8 8 7 5 6 5 5 7 6 6 9 9 11 10 11 10 8 8 5 4 3 5 6 6 6 6 5 5 6 4 5 4 5 7 9 10 10 12
8 8 9 9 7 6 6 7 6 6 6 9 6 8 7 7 5 4 3 3 2 4 5 4 4 3 3 3 3 3 4 7 6 7 7 8 11 13
7 7 7 8 9 10 7 8 8 8 8 8 9 9 4 4 4 3 3 2 2 2 3 4 5 6 6 6 6 8 7 7 9 13 13 12 11 11
7 7 7 7 10 8 7 8 9 7 7 7 5 6 3 5 6 3 3 2 2 1 3 5 6 7 7 8 13 16 14 15 15 14 13 11 8 7
7 7 9 13 12 14 14 14 8 9 8 5 3 6 4 4 3 4 4 3 3 2 4 7 6 7 8 8 14 18 17 15 15 13 11 10 13 14
7 7 7 7 11 11 11 10 9 9 5 4 8 6 5 7 6 3 3 2 3 2 5 6 4 9 7 10 14 15 14 14 14 16 18 16 17 16
7 9 9 10 8 9 6 5 5 4 3 2 4 6 4 7 6 4 5 7 4 4 1 4 1 7 7 8 11 11 13 18 19 17 18 18 15 11
8 9 9 8 9 9 5 6 6 5 8 9 9 7 9 11 8 7 5 6 3 2 3 4 3 4 4 5 6 14 16 16 17 16 14 12 12 8
6 6 9 8 8 7 5 6 6 4 7 6 6 8 7 7 6 3 6 5 4 2 2 3 4 4 5 3 6 8 8 12 7 9 10 10 11 7
6 5 3 9 8 6 6 4 3 8 7 7 6 5 6 6 5 6 4 5 4 3 1 2 2 2 3 3 2 6 4 4 6 7 7 10 12 10
6 4 4 7 7 8 5 8 11 9 6 6 6 6 6 6 7 8 10 10 9 8 4 4 4 2 2 2 2 3 2 3 6 7 9 11 10 9
4 5 9 7 7 6 3 9 10 6 6 6 6 4 5 7 10 10 10 12 13 11 9 6 7 5 3 3 3 3 3 2 7 9 9 9 10 10
8 6 5 6 3 6 6 5 5 6 6 7 6 7 8 8 7 6 8 7 8 7 9 9 6 6 6 5 4 3 4 4 7 8 8 7 8 9
7 3 2 2 3 3 3 4 4 5 6 5 8 9 8 8 7 6 7 4 5 5 4 5 7 8 5 4 4 5 5 4 6 7 7 8 8 8
3 3 4 4 5 6 6 6 5 6 6 8 8 9 9 9 8 6 4 7 9 6 6 4 5 5 3 5 8 5 4 4 5 6 7 6 6 7
3 4 5 6 6 6 6 6 5 5 6 7 8 8 8 8 9 7 7 8 7 6 4 3 3 2 2 2 3 5 5 5 6 6 5 6 7 7
3 5 7 7 6 7 6 6 5 6 6 6 6 7 8 9 9 9 8 9 9 6 4 2 3 3 2 3 3 2 4 5 5 6 6 6 6 10
8 7 6 7 7 7 7 7 7 8 7 8 8 9 8 9 9 9 8 9 9 5 7 4 3 3 5 4 3 1 2 5 6 5 7 7 7 3
8 9 7 7 7 8 8 8 7 7 7 8 9 9 10 10 10 10 8 9 6 5 5 4 4 3 2 2 3 1 2 5 7 9 8 8 5 7
8 8 8 8 8 8 8 8 8 8 9 9 9 9 8 8 7 8 6 6 4 10 6 3 2 1 3 2 1 1 3 4 4 4 4 9 12 11
Wind_Direction
118 121 105 95 91 76 73 96 109 142 92 96 112 115 105 131 126 122 124 121 128 136 139 146 153 158 172 173 186 194 219 245 276 273 267 265 272 278
113 114 106 98 93 96 96 87 117 129 108 59 105 124 113 106 114 111 120 124 132 149 154 183 166 178 178 190 207 230 251 272 265 275 289 297 300 298
114 121 106 119 116 111 104 112 132 124 120 109 121 126 123 119 110 107 119 124 141 144 167 168 179 186 202 216 236 250 256 287 325 317 299 290 295 288
115 114 115 113 107 105 100 102 110 123 126 126 129 133 127 120 116 120 124 122 139 184 188 182 189 205 221 243 259 311 327 327 311 314 326 328 313 312
126 138 139 131 126 123 108 105 109 108 113 123 119 128 118 122 113 92 99 107 149 164 177 199 222 248 323 330 346 314 339 348 340 331 326 345 358 353
107 116 122 125 142 138 121 116 113 116 115 110 120 119 116 100 101 119 122 128 132 93 75 59 61 67 44 30 38 41 37 42 41 34 26 17 7 353
97 105 106 110 99 104 116 123 118 115 120 124 101 113 108 142 156 155 113 118 80 99 97 46 68 68 57 65 75 69 66 60 59 59 55 46 31 24
104 101 111 103 93 93 87 82 88 111 112 117 112 135 133 135 128 151 127 122 134 53 100 71 75 79 73 73 79 74 73 73 67 61 55 42 29 22
120 120 104 104 107 105 87 84 87 91 102 119 143 145 141 169 153 128 127 128 117 129 124 93 82 88 81 66 75 80 77 67 61 46 35 26 18 13
126 124 124 123 121 118 109 94 82 108 106 112 149 152 157 155 144 147 139 111 104 90 74 104 120 103 94 78 60 83 78 56 44 37 28 19 4 350
98 118 127 129 131 120 107 98 102 81 54 69 90 105 128 139 140 126 125 125 93 64 32 110 151 130 110 86 70 59 61 54 40 28 12 357 350 329
102 100 108 132 139 125 116 140 121 132 124 98 77 61 69 79 69 68 148 135 133 129 85 112 144 173 151 116 52 41 50 40 30 10 351 342 351 7
134 136 150 153 157 154 142 155 142 128 109 109 102 90 80 84 77 72 74 127 125 96 123 161 121 102 62 118 77 46 40 27 19 10 343 356 346 6
150 143 137 159 171 165 154 121 116 112 123 117 112 110 109 96 78 78 76 76 64 85 79 78 97 104 105 79 100 9 21 19 10 5 4 359 5 4
137 137 136 153 154 143 158 141 138 133 133 132 137 131 120 117 110 97 89 85 71 56 46 54 101 111 94 106 110 27 331 275 4 5 0 2 358 2
98 88 93 103 95 115 109 155 156 156 156 155 149 124 131 140 134 130 113 102 85 73 54 54 85 108 105 94 106 92 28 9 357 2 351 355 2 9
114 103 115 122 141 148 127 151 156 158 154 143 149 148 149 144 141 137 126 102 112 133 115 83 78 86 93 155 91 48 28 13 1 350 352 1 8 359
107 157 181 188 184 175 171 171 178 173 162 154 153 158 160 161 152 149 132 137 134 136 130 146 154 142 157 87 58 37 28 2 351 359 7 351 347 2
172 182 195 193 195 192 191 188 181 187 160 167 165 164 161 155 153 156 144 137 128 134 129 134 153 155 148 92 92 58 4 357 349 1 0 358 314 328
202 196 204 197 199 199 196 193 179 167 173 164 163 163 162 157 162 162 154 146 145 141 129 124 131 117 139 138 136 69 13 357 352 349 345 325 288 290
207 216 207 197 198 197 198 194 186 186 179 173 170 162 167 169 167 159 152 149 140 145 153 177 144 93 102 110 116 135 352 356 10 351 336 320 339 339
202 210 209 200 195 194 193 192 186 172 176 185 182 178 169 168 167 162 162 162 156 128 119 129 156 145 93 97 115 66 355 345 2 5 10 17 1 339
208 209 205 202 200 198 193 190 191 189 187 185 180 180 170 166 164 151 138 124 139 132 130 174 171 80 93 94 137 98 7 348 331 336 336 352 347 334